Preview of NWS' New Version of Forecast
This preview is not operational and should not be used for support decisions.

Regional Weather Roundup (RWR)

Issued by National Weather Service (NWS)

                            
000
ASUS45 KCYS 241210
RWRWY 

WYOMING REGIONAL WEATHER ROUNDUP
NATIONAL WEATHER SERVICE CHEYENNE WY
600 AM MDT SAT AUG 24 2019

NOTE:  "FAIR" INDICATES FEW OR NO CLOUDS BELOW 12,000 FEET
WITH NO SIGNIFICANT WEATHER AND/OR OBSTRUCTIONS TO VISIBILITY.

WYZ001-241300-
...YELLOWSTONE NATIONAL PARK...
  
CITY           SKY/WX    TMP DP  RH WIND       PRES   REMARKS
LK YELLOWSTONE   N/A     40  38  93 CALM      30.22S                  
6HR MIN TEMP:  39; 6HR MAX TEMP:  43;                                

W YELLOWSTONE  NOT AVBL                                               

$$
WYZ002>013-054>058-071-098>099-241300-
...NORTHERN WYOMING...
  
CITY           SKY/WX    TMP DP  RH WIND       PRES   REMARKS
JACKSON        MOCLDY    43  36  76 CALM      30.16S                  
CODY           PTCLDY    56  44  64 CALM      30.01S                  
GREYBULL       CLEAR     53  48  83 CALM      29.96S                  
6HR MIN TEMP:  52; 6HR MAX TEMP:  62;                                

WORLAND        CLEAR     53  50  89 S5        29.98S                  
6HR MIN TEMP:  51; 6HR MAX TEMP:  58;                                

SHERIDAN       PTCLDY    50  48  93 S5        29.93F                  
6HR MIN TEMP:  50; 6HR MAX TEMP:  59;                                

BUFFALO        PTCLDY    52  45  77 W5          N/A                   
6HR MIN TEMP:  50; 6HR MAX TEMP:  60;                                

GILLETTE       CLEAR     56  53  90 S8        29.94F                  
6HR MIN TEMP:  54; 6HR MAX TEMP:  58;                                

HULETT         FAIR      54  50  87 S5        29.96F                  
NEWCASTLE      FAIR      55  50  82 CALM      29.99S                  

$$
WYZ014>020-022>026-101>103-241300-
...CENTRAL WYOMING...
  
CITY           SKY/WX    TMP DP  RH WIND       PRES   REMARKS
BIG PINEY      PTCLDY    36  30  79 CALM      30.18S                  
6HR MIN TEMP:  33; 6HR MAX TEMP:  48;                                

PINEDALE       CLEAR     37  32  81 NW8       30.19S WCI  31          
DUBOIS         FAIR      43  34  70 W15       30.16S                  
LANDER         CLEAR     54  43  66 W3        30.08R                  
6HR MIN TEMP:  49; 6HR MAX TEMP:  58;                                

RIVERTON       CLEAR     53  45  74 W8        30.06R                  
6HR MIN TEMP:  51; 6HR MAX TEMP:  58;                                

CASPER         CLEAR     48  45  89 W9        30.03S                  
6HR MIN TEMP:  48; 6HR MAX TEMP:  52;                                

DOUGLAS        CLEAR     52  49  89 NW3       30.01S                  
6HR MIN TEMP:  52; 6HR MAX TEMP:  60;                                


$$
WYZ021-027>030-104>119-241300-
...SOUTHERN WYOMING...
  
CITY           SKY/WX    TMP DP  RH WIND       PRES   REMARKS
EVANSTON       CLEAR     52  33  48 S6        30.19S                  
6HR MIN TEMP:  50; 6HR MAX TEMP:  58;                                

KEMMERER       PTCLDY    43  34  70 NW8       30.20S                  
FORT BRIDGER   NOT AVBL                                               
ROCK SPRINGS   CLEAR     50  30  46 W3        30.17R                  
6HR MIN TEMP:  50; 6HR MAX TEMP:  59;                                

DIXON          FAIR      38  28  66 E12       30.19R WCI  31          
RAWLINS        CLEAR     53  42  66 NW8       30.14R                  
6HR MIN TEMP:  47; 6HR MAX TEMP:  56;                                

SARATOGA       FAIR      43  32  65 CALM      30.15S                  
LARAMIE        CLEAR     50  47  89 S15       30.11F                  
6HR MIN TEMP:  50; 6HR MAX TEMP:  59;                                

CHEYENNE       CLOUDY    56  52  86 S13G21    30.08F                  
6HR MIN TEMP:  55; 6HR MAX TEMP:  60;                                

TORRINGTON     PTCLDY    54  53  97 NE5       30.00S                  
6HR MIN TEMP:  54; 6HR MAX TEMP:  62;                                

PINE BLUFFS    FAIR      54  54 100 S7        30.05F                  

$$